Regional Weather Roundup
Issued by NWS San Angelo, TX

Home | Current Version | Previous Version | Text Only | Print | Product List | Glossary On
Versions: 1 2 3 4 5 6 7 8 9 10 11 12 13 14 15 16 17 18 19 20 21 22 23 24 25 26 27 28 29 30 31 32 33 34 35 36 37 38 39 40 41 42 43 44 45 46 47 48 49 50
110
ASUS44 KSJT 120802
RWRSJT
WEST CENTRAL TEXAS REGIONAL WEATHER ROUNDUP
NATIONAL WEATHER SERVICE SAN ANGELO TX
200 AM CST FRI FEB 12 2016

NOTE: "FAIR" INDICATES FEW OR NO CLOUDS BELOW 12,000 FEET WITH NO
SIGNIFICANT WEATHER AND/OR OBSTRUCTIONS TO VISIBILITY.

TXZ049-054-064>066-071>073-076>078-098-099-113-114-127-128-139-140-
154-155-168>170-120900
...LOCATIONS ACROSS WEST CENTRAL TEXAS...

CITY           SKY/WX    TMP DP  RH WIND       PRES   REMARKS
SAN ANGELO     CLOUDY    40  25  55 W5        30.18R WCI  37
ABILENE        PTCLDY    41  32  70 CALM      30.17F
DYESS AFB      NOT AVBL
JUNCTION       CLEAR     39  26  59 W3        30.16R
SWEETWATER     NOT AVBL
BROWNWOOD      NOT AVBL
COLEMAN        NOT AVBL
SONORA         NOT AVBL
OZONA          NOT AVBL
BRADY          NOT AVBL
$$

TEXAS PANHANDLE/OKLAHOMA PANHANDLE

CITY           SKY/WX    TMP DP  RH WIND       PRES   REMARKS
AMARILLO       CLOUDY    45  25  45 NW8       30.23R
BORGER         CLEAR     43  25  49 W5        30.21F
CANADIAN       CLOUDY    33  27  80 S3        30.21S
DALHART        CLOUDY    39  23  52 N13       30.27R WCI  31
DUMAS          CLOUDY    33  22  64 N9        30.23R WCI  25
GUYMON         NOT AVBL
HEREFORD       NOT AVBL
PAMPA          NOT AVBL
PERRYTON       NOT AVBL
$$

SOUTHERN PANHANDLE/SOUTH PLAINS/ROLLING PLAINS

CITY           SKY/WX    TMP DP  RH WIND       PRES   REMARKS
LUBBOCK        CLOUDY    37  23  56 W6        30.20S WCI  32
SNYDER           N/A     46  30  52 NE6       30.19S
CHILDRESS      CLEAR     40  31  70 N7        30.19R WCI  35
SEMINOLE       NOT AVBL
$$

PERMIAN BASIN

CITY           SKY/WX    TMP DP  RH WIND       PRES   REMARKS
MIDLAND        CLOUDY    40  27  59 W3        30.19S
ODESSA         CLOUDY    43  26  51 NW3       30.20S
WINK           CLOUDY    35  23  61 N8        30.19S WCI  29
$$

FAR WEST/SOUTHWEST MOUNTAINS/TRANS PECOS

CITY           SKY/WX    TMP DP  RH WIND       PRES   REMARKS
ALPINE         NOT AVBL
DRYDEN           N/A     56  20  24 N7        30.15S
EL PASO        PTCLDY    44  18  35 N3        30.24R
FORT STOCKTON  CLOUDY    49  24  37 SW13      30.20S
GUADALUPE PASS CLEAR     54  12  18 W13       30.30S
MARFA          CLEAR     29  14  53 NW6       30.30R WCI  23
PECOS          CLOUDY    36  22  58 SW5       30.20S WCI  32
$$

DALLAS/FORT WORTH METROPLEX

CITY           SKY/WX    TMP DP  RH WIND       PRES   REMARKS
DFW AIRPORT    CLEAR     49  34  56 N8        30.13R
FTW MEACHAM    CLEAR     52  34  50 N9        30.14R
DAL-EXECUTIVE  CLEAR     53  34  48 NE6       30.13R
GRAND PRAIRIE  CLEAR     50  36  57 N7        30.15R
ADDISON        CLEAR     55  37  50 E7        30.15S
MESQUITE       SUNNY     49  37  62 N6        30.14R
LANCASTER      SUNNY     51  33  49 N6        30.14R
$$

NORTH CENTRAL TEXAS

CITY           SKY/WX    TMP DP  RH WIND       PRES   REMARKS
SHRMAN/DENISON SUNNY     45  32  59 NE5       30.17S
GAINESVILLE    CLEAR     41  32  70 CALM      30.18S
BRIDGEPORT     SUNNY     41  36  81 SW3       30.18R
DENTON         CLEAR     44  33  65 N7        30.15S
WAXAHACHIE     SUNNY     52  37  57 N8        30.14R
GRANBURY       SUNNY     46  36  66 W5        30.15R
$$

WESTERN NORTH TEXAS

CITY           SKY/WX    TMP DP  RH WIND       PRES   REMARKS
WICHITA FALLS  CLEAR     40  32  73 N8        30.16F WCI  34
VERNON         CLOUDY    41  31  68 CALM      30.18S
BRECKENRIDGE   NOT AVBL
COMANCHE       CLEAR     51  34  51 NW7       30.15R
$$

CENTRAL AND SOUTH CENTRAL TEXAS

CITY           SKY/WX    TMP DP  RH WIND       PRES   REMARKS
AUSTIN/BERGSTM CLEAR     44  43  96 CALM      30.15R
WACO           CLEAR     44  36  73 W5        30.11S
HILLSBORO      SUNNY     46  35  64 CALM      30.12R
TEMPLE         PTCLDY    53  44  71 S7        30.12S
KILLEEN-GRAY   NOT AVBL
FORT HOOD      NOT AVBL
GEORGETOWN     CLEAR     55  45  67 SW7       30.13S
LAGO VISTA     FAIR      62  46  54 SW7       30.15R
SAN MARCOS     PTCLDY    52  48  87 SW8       30.17R
NEW BRAUNFELS  CLEAR     49  45  86 SW7       30.15S
RANDOLPH AFB   CLEAR     55  50  82 SW5       30.16R HAZE
SAN ANTONIO    CLEAR     50  44  80 NW3       30.16S
STINSON        CLEAR     51  47  86 N3        30.14S
PLEASANTON     NOT AVBL
LA GRANGE      NOT AVBL
GIDDINGS       NOT AVBL
$$

EAST TEXAS

CITY           SKY/WX    TMP DP  RH WIND       PRES   REMARKS
PARIS          CLEAR     43  28  56 E8        30.17R WCI  38
CLARKSVILLE    NOT AVBL
TYLER          CLEAR     51  37  58 CALM      30.13R
LONGVIEW       CLEAR     48  40  73 E5        30.13S
PALESTINE      MOSUNNY   55  49  79 SE5       30.15S
NACOGDOCHES    PTCLDY    48  43  81 CALM      30.14S
$$

TEXAS HILL COUNTRY AND EDWARDS PLATEAU

CITY           SKY/WX    TMP DP  RH WIND       PRES   REMARKS
LLANO          NOT AVBL
HORSESHOE BAY  FAIR      60  41  49 SW3       30.14R
KERRVILLE      CLEAR     41  34  77 CALM      30.17R
FREDERICKSBRG  NOT AVBL
ROCKSPRINGS    NOT AVBL
HONDO          CLEAR     42  28  57 N8        30.18R WCI  37
UVALDE         SUNNY     48  34  58 NE7       30.16S
DEL RIO        CLEAR     57  29  34 NE10      30.12F
$$

SOUTHEAST TEXAS

CITY           SKY/WX    TMP DP  RH WIND       PRES   REMARKS
COLLEGE STN    PTCLDY    55  52  89 S5        30.15R
CALDWELL       MOSUNNY   55  54  94 S9        30.17S
CROCKETT       NOT AVBL
BRENHAM        PTCLDY    60  55  86 SW6       30.16S
HUNTSVILLE     PTCLDY    60  55  83 S13       30.15R
CONROE         PTCLDY    59  56  89 SW5       30.17R
HOUSTON BUSH   CLEAR     61  56  83 SW6       30.16F
HOUSTON HOBBY  PTCLDY    59  57  93 S8        30.17R
PERLAND        CLEAR     60  57  89 S6        30.19S
WHARTON        MOSUNNY   55  54  95 S9        30.18S
$$

THE UPPER TEXAS COAST

CITY           SKY/WX    TMP DP  RH WIND       PRES   REMARKS
ORANGE         MOSUNNY   60  56  87 SW10      30.19F
PORT ARTHUR    MOCLDY    55  55 100 S6        30.18S FOG
GALVESTON      PTCLDY    60  60 100 SW10      30.19S
ANGLETON       PTCLDY    55  54  96 S6        30.18S FOG
BAY CITY       FOG       53  53 100 S3        30.18S VSB 1/2
$$

TEXAS COASTAL BEND, RIO GRANDE PLAINS DEEP SOUTH TEXAS

CITY           SKY/WX    TMP DP  RH WIND       PRES   REMARKS
VICTORIA       CLEAR     58  58 100 S7        30.17F
BEEVILLE         N/A     53  53 100 SE5       30.16S FOG
ROCKPORT       CLEAR     62  59  90 S3        30.17S
PORT ARANSAS   NOT AVBL
PORT LAVACA    SUNNY     57  57 100 S3        30.18S
CORPUS CHRISTI FOG       55  54  96 SE8       30.16S VSB 1/2
KINGSVILLE NAS FOG       51  51 100 SE6       30.15F VSB 1/4
COTULLA        CLEAR     56  43  61 SE6       30.14S
LAREDO         PTCLDY    57  49  74 SE8       30.13F
BROWNSVILLE    CLEAR     59  58  96 S9        30.17F
PORT ISABEL    CLEAR     61  59  93 S9        30.15F
HEBBRONVILLE   NOT AVBL
MCALLEN        CLEAR     63  57  81 SE10      30.15F
WESLACO        NOT AVBL
FALFURRIAS     SUNNY     53  51  93 E3        30.14F
EDINBURG       SUNNY     64  59  83 S9        30.15S
$$




USA.gov is the U.S. government's official web portal to all federal, state and local government web resources and services.